Date,TemperatureHighF,TemperatureAvgF,TemperatureLowF,DewpointHighF,DewpointAvgF,DewpointLowF,HumidityHigh,HumidityAvg,HumidityLow,PressureMaxIn,PressureMinIn,WindSpeedMaxMPH,WindSpeedAvgMPH,GustSpeedMaxMPH,PrecipitationSumIn
2013-9-1,89.4,79.4,72.2,76.5,73.5,70.2,94,83,63,29.84,29.76,3,0,8,0.01
2013-9-2,82.1,76.7,72.6,75.9,73.3,68.8,95,89,77,29.78,29.69,2,0,7,0.00
2013-9-3,79.7,73.1,65.7,69.8,64.4,57.9,93,75,53,29.92,29.71,6,2,13,0.00
2013-9-4,79.3,69.1,60.8,61.9,59.1,57.1,89,72,50,30.04,29.91,5,1,11,0.00
2013-9-5,78.0,68.5,58.8,65.1,57.4,48.2,85,69,46,30.14,29.97,8,2,12,0.00
2013-9-6,71.0,61.0,51.6,51.2,46.6,41.2,83,61,37,30.26,30.14,7,2,13,0.00
2013-9-7,78.7,64.6,49.3,61.0,53.6,47.3,94,70,43,30.15,29.92,4,1,7,0.00
2013-9-8,79.5,70.8,61.5,68.8,61.3,48.7,88,73,56,30.07,29.85,7,3,17,0.00
2013-9-9,75.3,64.2,50.1,63.9,56.1,47.1,90,76,63,30.22,30.07,6,1,14,0.00
2013-9-10,87.8,76.4,67.1,76.6,70.9,63.6,92,84,68,30.18,30.07,2,0,9,0.00
2013-9-11,92.6,81.8,73.3,80.1,74.6,71.3,94,80,62,30.12,29.98,3,0,7,0.00
2013-9-12,88.1,76.8,69.0,76.9,71.9,67.3,95,85,66,29.99,29.71,8,0,12,0.71
2013-9-13,75.2,67.1,57.5,67.6,60.6,50.9,95,81,59,29.89,29.65,8,2,15,0.11
2013-9-14,61.6,56.2,48.8,51.0,49.1,45.9,90,77,65,30.16,29.89,7,2,16,0.00
2013-9-15,73.2,59.0,45.7,57.3,51.0,43.5,94,77,52,30.24,30.09,4,0,9,0.00
2013-9-16,68.3,61.9,56.3,60.2,56.6,50.4,94,84,65,30.25,30.03,5,1,10,0.09
2013-9-17,64.3,54.4,45.0,50.8,44.2,40.7,92,70,46,30.43,30.25,9,3,17,0.00
2013-9-18,70.5,56.6,44.5,50.7,46.7,42.3,94,72,40,30.36,30.20,3,0,6,0.00
2013-9-19,75.3,62.2,50.8,58.3,54.0,48.8,94,77,50,30.21,30.08,4,0,9,0.00
2013-9-20,77.8,65.7,55.0,64.0,58.1,53.0,94,78,49,30.09,29.97,2,0,8,0.00
2013-9-21,76.9,66.2,55.1,66.1,60.6,53.4,95,83,61,30.01,29.68,5,1,14,0.85
2013-9-22,65.9,60.8,51.7,61.8,53.5,46.8,95,78,55,29.93,29.67,6,2,13,0.35
2013-9-23,64.4,55.4,47.5,50.6,45.6,42.3,84,70,55,30.07,29.93,8,3,19,0.00
2013-9-24,70.1,56.2,43.8,53.3,47.7,41.3,91,75,52,30.09,29.92,4,2,11,0.00
2013-9-25,72.2,59.2,48.0,53.1,48.8,44.5,92,71,43,29.97,29.88,4,1,6,0.00
2013-9-26,73.2,59.7,49.8,58.3,53.4,47.9,94,81,55,30.09,29.93,4,1,8,0.00
2013-9-27,68.9,61.6,56.8,58.2,55.0,52.6,94,80,57,30.26,30.09,4,1,7,0.00
2013-9-28,70.8,61.7,54.4,56.6,53.2,50.2,94,76,51,30.32,30.23,6,1,13,0.00
2013-9-29,70.3,59.7,50.1,58.0,53.2,48.4,95,80,59,30.23,30.07,5,1,10,0.00
2013-9-30,72.8,60.4,50.1,57.5,53.1,48.4,96,79,52,30.09,29.99,4,1,10,0.00